Location: ????????
(55.0559°N, 39.1270°E)
Time: 18:04:04
(UTC+00:00)

COSMO-SKYMED 1 - Pass Details

Date: 15 November 2025
Orbit: 579 x 581 km, 97.9° (Epoch: 14 December)

Event Time Altitude Azimuth Distance (km) Brightness Sun altitude
Rises 02:20:07 0° 157° (SSE) 2,796 6.2 -21.9°
Reaches altitude 10° 02:22:16 10° 155° (SSE) 1,900 5.4 -21.6°
Maximum altitude 02:26:23 72° 72° (ENE) 618 2.6 -21.0°
Enters shadow 02:30:12 12° 349° (NNW) 1,787 4.8 -20.5°
